Location: Beaurecueil
(43.5122°N, 5.5450°E)
Time: 00:17:45
(UTC+00:00)

Cosmos 2151 Rocket - Pass Details

Date: 18 September 2020
Orbit: 618 x 642 km, 82.5° (Epoch: 26 October)

Event Time Altitude Azimuth Distance (km) Brightness Sun altitude
Rises 18:43:08 0° 162° (SSE) 2,897 6.7 -11.8°
Reaches altitude 10° 18:45:32 10° 152° (SSE) 1,999 5.8 -12.2°
Maximum altitude 18:49:27 31° 90° (E) 1,107 4.3 -12.9°
Drops below altitude 10° 18:53:24 10° 28° (NNE) 2,027 6.1 -13.6°
Sets 18:55:50 0° 19° (NNE) 2,945 7.0 -14.0°
